Change the Weather History Date:

Saturday, November 17, 2012

  Actual Average (KTUL) Record (KTUL)
Temperature  
Mean Temperature 46 °F 50 °F  
Max Temperature 63 °F 60 °F 80 °F (1966)
Min Temperature 30 °F 39 °F 11 °F (1959)
Degree Days  
Heating Degree Days 18 16  
Month to date heating degree days 207  
Since 1 July heating degree days 393  
Moisture  
Dew Point 27 °F    
Average Humidity 56    
Maximum Humidity 88    
Minimum Humidity 18    
Precipitation  
Precipitation 0.00 in 0.09 in 1.24 in (1952)
Month to date precipitation 1.75  
Year to date precipitation 37.42  
Sea Level Pressure  
Sea Level Pressure 30.37 in    
Wind  
Wind Speed 3 mph (South)    
Max Wind Speed 14 mph    
Max Gust Speed 20 mph    
Visibility 10 miles    
Events      
T = Trace of Precipitation, MM = Missing Value Source: NWS Daily Summary

Daily Weather History Graph

Daily Weather History Graph

Search for Another Location

Airport or City:

Trip Planner

Search our weather history database for the weather conditions in past years. The results will help you decide how hot, cold, wet, or windy it might be!

Date:

Astronomy

Nov. 17, 2012 Rise Set
Actual Time 7:03 AM CST 5:14 PM CST
Civil Twilight 6:35 AM CST 5:42 PM CST
Nautical Twilight 6:04 AM CST 6:13 PM CST
Astronomical Twilight 5:33 AM CST 6:43 PM CST
Moon 10:48 AM CST (11/17) 9:25 PM CST (11/17)
Length of Visible Light 11h 06m
Length of Day
10h 11m
Waxing Crescent, 20% of the Moon is Illuminated
Nov 17
Waxing Crescent
Nov 20
First Quarter
Nov 28
Full
Dec 6
Last Quarter
Dec 13
New

Hourly Weather History & Observations

Time (CST) Temp. Dew Point Humidity Pressure Visibility Wind Dir Wind Speed Gust Speed Precip Events Conditions
12:53 AM 35.1 °F 30.0 °F 82% 30.39 in 10.0 mi Calm Calm - N/A   Clear
1:53 AM 35.1 °F 30.0 °F 82% 30.39 in 9.0 mi Calm Calm - N/A   Clear
2:53 AM 30.0 °F 26.1 °F 85% 30.39 in 10.0 mi Calm Calm - N/A   Clear
3:53 AM 32.0 °F 28.9 °F 88% 30.39 in 8.0 mi Calm Calm - N/A   Clear
4:53 AM 32.0 °F 28.9 °F 88% 30.40 in 9.0 mi Calm Calm - N/A   Clear
5:53 AM 33.1 °F 28.9 °F 85% 30.41 in 10.0 mi Calm Calm - N/A   Clear
6:53 AM 32.0 °F 28.9 °F 88% 30.43 in 8.0 mi Calm Calm - N/A   Clear
7:53 AM 35.1 °F 30.9 °F 85% 30.43 in 9.0 mi Calm Calm - N/A   Clear
8:53 AM 44.1 °F 34.0 °F 68% 30.44 in 10.0 mi Calm Calm - N/A   Clear
9:53 AM 51.1 °F 33.1 °F 50% 30.44 in 10.0 mi South 6.9 mph - N/A   Clear
10:53 AM 55.9 °F 25.0 °F 30% 30.43 in 10.0 mi South 13.8 mph 19.6 mph N/A   Clear
11:53 AM 59.0 °F 19.0 °F 21% 30.41 in 10.0 mi SSW 10.4 mph 19.6 mph N/A   Clear
12:53 PM 61.0 °F 19.0 °F 20% 30.37 in 10.0 mi SSE 9.2 mph - N/A   Clear
1:53 PM 62.1 °F 19.0 °F 19% 30.34 in 10.0 mi South 10.4 mph 17.3 mph N/A   Clear
2:53 PM 63.0 °F 19.0 °F 18% 30.31 in 10.0 mi South 13.8 mph - N/A   Clear
3:53 PM 62.1 °F 21.0 °F 21% 30.32 in 10.0 mi South 11.5 mph - N/A   Clear
4:53 PM 60.1 °F 25.0 °F 26% 30.32 in 10.0 mi South 5.8 mph - N/A   Clear
5:53 PM 55.9 °F 26.1 °F 32% 30.31 in 10.0 mi SSE 3.5 mph - N/A   Clear
6:53 PM 54.0 °F 27.0 °F 35% 30.30 in 10.0 mi SSE 3.5 mph - N/A   Clear
7:53 PM 44.1 °F 28.9 °F 55% 30.31 in 10.0 mi Calm Calm - N/A   Clear
8:53 PM 42.1 °F 28.9 °F 60% 30.30 in 10.0 mi Calm Calm - N/A   Clear
9:53 PM 42.1 °F 28.9 °F 60% 30.31 in 10.0 mi Calm Calm - N/A   Clear
10:53 PM 39.0 °F 30.0 °F 70% 30.31 in 10.0 mi Calm Calm - N/A   Clear
11:53 PM 41.0 °F 30.0 °F 65% 30.32 in 10.0 mi Calm Calm - N/A   Clear